Lindcove
DateTemperatureDew Point
08/30 - 11:30 PM70.0°66.2°
08/30 - 11:15 PM69.0°64.5°
08/30 - 11:00 PM70.3°65.0°
08/30 - 10:45 PM71.0°65.3°
08/30 - 10:30 PM72.5°66.3°
08/30 - 10:15 PM72.6°66.9°
08/30 - 10:00 PM72.0°65.9°
08/30 - 09:45 PM74.2°67.2°
08/30 - 09:30 PM74.5°66.0°
08/30 - 09:15 PM75.4°65.3°
08/30 - 09:00 PM75.3°64.6°
08/30 - 08:45 PM77.1°66.2°
08/30 - 08:30 PM77.1°66.7°
08/30 - 08:15 PM82.2°71.4°
08/30 - 08:00 PM83.4°72.3°
08/30 - 07:45 PM85.0°73.4°
08/30 - 07:30 PM85.6°69.9°
08/30 - 07:15 PM87.0°66.8°
08/30 - 07:00 PM88.7°63.4°
08/30 - 06:45 PM90.1°61.3°
08/30 - 06:30 PM91.1°59.5°
08/30 - 06:15 PM91.4°57.3°
08/30 - 06:00 PM91.9°57.0°
08/30 - 05:45 PM92.0°56.8°
08/30 - 05:30 PM92.3°56.9°
08/30 - 05:15 PM92.4°56.7°
08/30 - 05:00 PM92.4°56.4°
08/30 - 04:45 PM92.3°56.8°
08/30 - 04:30 PM92.4°57.1°
08/30 - 04:15 PM92.4°57.1°
08/30 - 04:00 PM91.7°57.2°
08/30 - 03:45 PM91.9°56.1°
08/30 - 03:30 PM92.0°55.5°
08/30 - 03:15 PM91.8°54.8°
08/30 - 03:00 PM91.3°55.2°
08/30 - 02:45 PM90.3°54.8°
08/30 - 02:30 PM90.0°54.4°
08/30 - 02:15 PM90.1°55.1°
08/30 - 02:00 PM89.0°54.5°
08/30 - 01:45 PM88.4°54.5°
08/30 - 01:30 PM87.5°54.1°
08/30 - 01:15 PM86.8°53.0°
08/30 - 01:00 PM86.2°52.9°
08/30 - 12:45 PM85.2°52.7°
08/30 - 12:30 PM84.5°53.1°
08/30 - 12:15 PM83.7°52.8°
08/30 - 12:00 PM83.4°53.5°
08/30 - 11:45 AM82.1°53.1°
08/30 - 11:30 AM81.5°54.2°
08/30 - 11:15 AM80.8°54.6°
08/30 - 11:00 AM80.0°54.3°
08/30 - 10:45 AM79.7°54.6°
08/30 - 10:30 AM78.7°54.5°
08/30 - 10:15 AM77.6°55.1°
08/30 - 10:00 AM76.2°54.8°
08/30 - 09:45 AM75.1°55.2°
08/30 - 09:30 AM73.5°55.1°
08/30 - 09:15 AM72.6°55.5°
08/30 - 09:00 AM71.6°55.6°
08/30 - 08:45 AM70.4°55.7°
08/30 - 08:30 AM69.4°56.0°
08/30 - 08:15 AM68.5°55.9°
08/30 - 08:00 AM68.3°56.5°
08/30 - 07:45 AM67.6°57.4°
08/30 - 07:30 AM67.0°61.9°
08/30 - 07:15 AM64.7°64.6°
08/30 - 07:00 AM63.6°63.6°
08/30 - 06:45 AM62.8°62.8°
08/30 - 06:30 AM62.1°62.1°
08/30 - 06:15 AM62.5°62.4°
08/30 - 06:00 AM62.3°62.1°
08/30 - 05:45 AM63.0°62.7°
08/30 - 05:30 AM63.2°62.9°
08/30 - 05:15 AM63.6°63.3°
08/30 - 05:00 AM64.7°64.4°
08/30 - 04:45 AM64.5°64.1°
08/30 - 04:30 AM64.9°64.4°
08/30 - 04:15 AM65.4°64.7°
08/30 - 04:00 AM65.5°64.7°
08/30 - 03:45 AM66.2°65.2°
08/30 - 03:30 AM66.7°65.6°
08/30 - 03:15 AM66.7°65.4°
08/30 - 03:00 AM67.4°66.1°
08/30 - 02:45 AM67.8°66.4°
08/30 - 02:30 AM67.9°66.2°
08/30 - 02:15 AM67.6°65.6°
08/30 - 02:00 AM68.7°66.5°
08/30 - 01:45 AM69.7°67.0°
08/30 - 01:30 AM70.2°67.0°
08/30 - 01:15 AM72.5°68.9°
08/30 - 01:00 AM72.0°67.7°
08/30 - 12:45 AM70.1°65.0°
08/30 - 12:30 AM69.9°63.7°
08/30 - 12:15 AM70.6°64.4°
08/30 - 12:00 AM71.8°66.3°
08/29 - 11:45 PM71.6°66.5°
08/29 - 11:30 PM71.9°66.1°
08/29 - 11:15 PM72.9°66.3°
08/29 - 11:00 PM73.6°65.2°
08/29 - 10:45 PM75.4°64.7°
08/29 - 10:30 PM76.1°63.8°
08/29 - 10:15 PM76.1°64.9°
08/29 - 10:00 PM76.5°66.2°
08/29 - 09:45 PM76.6°66.2°
08/29 - 09:30 PM76.1°65.7°
08/29 - 09:15 PM76.3°65.6°
08/29 - 09:00 PM76.5°66.0°
08/29 - 08:45 PM78.2°66.7°
08/29 - 08:30 PM79.3°67.0°
08/29 - 08:15 PM80.3°68.7°
08/29 - 08:00 PM82.0°70.2°
08/29 - 07:45 PM85.8°75.8°
08/29 - 07:30 PM84.7°73.1°
08/29 - 07:15 PM86.8°72.8°
08/29 - 07:00 PM87.2°71.0°
08/29 - 06:45 PM88.4°68.3°
08/29 - 06:30 PM89.9°67.2°
08/29 - 06:15 PM90.9°65.6°
08/29 - 06:00 PM91.2°64.5°
08/29 - 05:45 PM91.5°63.9°
08/29 - 05:30 PM91.9°63.0°
08/29 - 05:15 PM91.9°62.5°
08/29 - 05:00 PM91.7°62.2°
08/29 - 04:45 PM91.9°61.5°
08/29 - 04:30 PM91.5°60.4°
08/29 - 04:15 PM91.3°60.9°
08/29 - 04:00 PM91.0°59.4°
08/29 - 03:45 PM90.8°59.3°
08/29 - 03:30 PM90.5°59.5°
08/29 - 03:15 PM90.2°59.6°
08/29 - 03:00 PM89.4°60.3°
08/29 - 02:45 PM88.1°59.8°
08/29 - 02:30 PM87.3°60.5°
08/29 - 02:15 PM87.7°60.1°
08/29 - 02:00 PM87.1°59.9°
08/29 - 01:45 PM87.6°59.6°
08/29 - 01:30 PM86.5°60.0°
08/29 - 01:15 PM85.1°61.1°
08/29 - 01:00 PM84.9°60.6°
08/29 - 12:45 PM85.4°61.2°
08/29 - 12:30 PM84.6°61.2°
08/29 - 12:15 PM83.3°61.9°
08/29 - 12:00 PM82.5°61.9°
08/29 - 11:45 AM82.5°61.8°
08/29 - 11:30 AM81.1°62.1°
08/29 - 11:15 AM80.6°62.0°
08/29 - 11:00 AM79.9°62.3°
08/29 - 10:45 AM79.8°62.0°
08/29 - 10:30 AM79.1°62.3°
08/29 - 10:15 AM78.7°62.3°
08/29 - 10:00 AM77.6°62.2°
08/29 - 09:45 AM76.9°61.9°
08/29 - 09:30 AM76.3°61.9°
08/29 - 09:15 AM75.9°61.9°
08/29 - 09:00 AM75.3°61.7°
08/29 - 08:45 AM74.8°61.7°
08/29 - 08:30 AM74.0°62.1°
08/29 - 08:15 AM73.4°62.3°
08/29 - 08:00 AM72.5°63.7°
08/29 - 07:45 AM72.5°66.1°
08/29 - 07:30 AM72.0°66.3°
08/29 - 07:15 AM70.2°66.0°
08/29 - 07:00 AM67.8°65.3°
08/29 - 06:45 AM67.1°65.2°
08/29 - 06:30 AM66.8°64.8°
08/29 - 06:15 AM66.2°64.2°
08/29 - 06:00 AM65.9°63.6°
08/29 - 05:45 AM66.1°63.5°
08/29 - 05:30 AM68.1°64.9°
08/29 - 05:15 AM68.5°64.6°
08/29 - 05:00 AM68.6°64.0°
08/29 - 04:45 AM68.9°64.8°
08/29 - 04:30 AM68.3°64.8°
08/29 - 04:15 AM68.1°64.7°
08/29 - 04:00 AM68.9°65.4°
08/29 - 03:45 AM69.4°66.1°
08/29 - 03:30 AM69.3°66.8°
08/29 - 03:15 AM69.3°67.1°
08/29 - 03:00 AM68.3°66.3°
08/29 - 02:45 AM68.7°66.8°
08/29 - 02:30 AM69.0°66.9°
08/29 - 02:15 AM69.6°67.3°
08/29 - 02:00 AM70.8°68.2°
08/29 - 01:45 AM70.4°67.3°
08/29 - 01:30 AM70.7°67.0°
08/29 - 01:15 AM71.5°67.4°
08/29 - 01:00 AM71.7°67.3°
08/29 - 12:45 AM71.5°66.1°
08/29 - 12:30 AM71.5°65.1°
08/29 - 12:15 AM71.3°64.6°